Weather History for Lakehurst NAS, NJ

Change the Weather History Date:

Wednesday, December 19, 2012

  Actual Average Record
Temperature  
Mean Temperature 44 °F -  
Max Temperature 35 °F 43 °F 55 °F (1997)
Min Temperature 35 °F 32 °F 19 °F (2000)
Degree Days  
Heating Degree Days 22    
Moisture  
Dew Point 28 °F    
Average Humidity 59    
Maximum Humidity 70    
Minimum Humidity 41    
Precipitation  
Precipitation 0.00 in - - ()
Sea Level Pressure  
Sea Level Pressure 29.86 in    
Wind  
Wind Speed 13 mph (WNW)    
Max Wind Speed 22 mph    
Max Gust Speed 33 mph    
Averages and records for this station are not official NWS values.
T = Trace of Precipitation, MM = Missing Value Source: NWS Daily Summary

Daily Weather History Graph

Daily Weather History Graph

Search for Another Location

Airport:

Trip Planner

Search our weather history database for the weather conditions in past years. The results will help you decide how hot, cold, wet, or windy it might be!

Date:

Astronomy

Dec. 19, 2012 Rise Set
Actual Time 7:15 AM EST 4:34 PM EST
Civil Twilight 6:44 AM EST 5:05 PM EST
Nautical Twilight 6:10 AM EST 5:39 PM EST
Astronomical Twilight 5:37 AM EST 6:12 PM EST
Moon 11:22 AM EST (12/19) 11:59 PM EST (12/19)
Length of Visible Light 10h 20m
Length of Day
9h 19m
Waxing Crescent, 45% of the Moon is Illuminated
Dec 19
Waxing Crescent
Dec 20
First Quarter
Dec 28
Full
Jan 4
Last Quarter
Jan 11
New

Hourly Weather History & Observations

Time (EST) Temp. Windchill Dew Point Humidity Pressure Visibility Wind Dir Wind Speed Gust Speed Precip Events Conditions
12:00 AM 41.0 °F 33.5 °F 32.0 °F 70% 29.67 in - West 13.8 mph - N/A   Clear
1:00 AM 41.0 °F 33.1 °F 30.0 °F 65% 29.68 in - WNW 15.0 mph 23.0 mph N/A   Clear
2:00 AM 39.9 °F 31.8 °F 28.9 °F 65% 29.71 in - West 15.0 mph - N/A   Clear
3:00 AM 39.9 °F 30.8 °F 28.0 °F 63% 29.72 in - WNW 18.4 mph 23.0 mph N/A   Clear
4:00 AM 39.9 °F 32.9 °F 28.9 °F 65% 29.72 in - WNW 11.5 mph - N/A   Partly Cloudy
5:00 AM 39.9 °F 32.1 °F 28.9 °F 65% 29.73 in - West 13.8 mph - N/A   Partly Cloudy
6:00 AM 37.9 °F 30.9 °F 28.0 °F 68% 29.75 in - West 10.4 mph - N/A   Scattered Clouds
7:00 AM 37.9 °F 31.5 °F 28.0 °F 68% 29.78 in - West 9.2 mph - N/A   Clear
8:00 AM 39.0 °F 31.4 °F 30.0 °F 70% 29.81 in - West 12.7 mph - N/A   Clear
9:00 AM 42.1 °F 34.2 °F 30.9 °F 65% 29.83 in - West 16.1 mph - N/A   Clear
10:00 AM 44.1 °F 35.4 °F 30.0 °F 58% 29.83 in - WNW 21.9 mph 29.9 mph N/A   Clear
11:00 AM 46.0 °F 39.9 °F 28.0 °F 50% 29.82 in - WNW 13.8 mph 25.3 mph N/A   Clear
12:00 PM 48.0 °F - 27.0 °F 44% 29.81 in - WNW 17.3 mph 33.4 mph N/A   Clear
1:00 PM 48.9 °F - 27.0 °F 43% 29.82 in - NW 16.1 mph 27.6 mph N/A   Clear
2:00 PM 50.0 °F - 27.0 °F 41% 29.83 in - WNW 19.6 mph 27.6 mph N/A   Clear
3:00 PM 50.0 °F - 27.0 °F 41% 29.87 in - NW 10.4 mph 21.9 mph N/A   Clear
4:00 PM 48.0 °F - 28.0 °F 46% 29.91 in - WNW 10.4 mph 19.6 mph N/A   Clear
5:00 PM 44.1 °F 40.8 °F 30.0 °F 58% 29.96 in - WNW 5.8 mph - N/A   Clear
6:00 PM 43.0 °F 38.2 °F 28.0 °F 56% 29.99 in - NW 8.1 mph - N/A   Clear
7:00 PM 43.0 °F 38.8 °F 27.0 °F 53% 30.04 in - NW 6.9 mph - N/A   Clear
8:00 PM 41.0 °F 37.1 °F 26.1 °F 55% 30.07 in - WNW 5.8 mph - N/A   Clear
9:00 PM 39.0 °F 33.4 °F 27.0 °F 62% 30.09 in - WNW 8.1 mph - N/A   Clear
10:00 PM 37.0 °F 33.3 °F 27.0 °F 67% 30.11 in - NW 4.6 mph - N/A   Clear
11:00 PM 35.1 °F - 26.1 °F 70% 30.13 in - Calm Calm - N/A   Clear